sat.trackr.live / text

‹ back to catalog

STARLINK-2391

NORAD 47810 · 2021-018Z

PAYLOAD ACTIVE UNKNOWN

§ Identity

Operator
Country
US
Launch date
2021-03-11
Launch site
AFETR
Launch vehicle
Mass (kg)
RCS (m²)

Purposes: comms

External: N2YO · Heavens-Above · Gunter

§ Orbital elements

Epoch: 2026-09-12T21:35:01.324032Z

Period
94.01 min
Inclination
53.1608°
Eccentricity
0.0001236
Mean motion
15.31721687 rev/d
Perigee alt
469.8 km
Apogee alt
471.5 km
Semi-major
6,848.8 km
B*
-1.0006e-4
RAAN
104.4827°
Arg perigee
129.6729°
Mean anomaly
230.4381°
Rev number
30,528

§ Raw data

STARLINK-23911 47810U 21018Z   26255.89932088 -.00003471  00000+0 -10006-3 0  99952 47810  53.1608 104.4827 0001236 129.6729 230.4381 15.31721687305289

JSON: /api/v1/satellites/47810 · /tle

For live sub-satellite position, see the globe view (requires WebGL).

§ Visibility from observer

Set your observer location to see the next 7 days of passes ≥ 10°. The values pass through the URL so the page stays shareable.

No JS? Fill the form by hand. The geolocation button needs JavaScript.